Regional Weather Roundup
Issued by NWS

Home | Current Version | Previous Version | Text Only | Print | Product List | Glossary Off
Versions: 1 2 3 4 5 6 7 8 9 10 11 12 13 14 15 16 17 18 19 20 21 22 23 24 25 26 27 28 29 30 31 32 33 34 35 36 37 38 39 40 41 42 43 44 45 46 47 48 49 50

000
ASUS43 KFSD 190410
RWRSD

WEATHER ROUNDUP FOR SOUTH DAKOTA
NATIONAL WEATHER SERVICE SIOUX FALLS SD
1100 PM CDT THU SEP 18 2014

NOTE: "FAIR" INDICATES FEW OR NO CLOUDS BELOW 12,000 FEET WITH NO
SIGNIFICANT WEATHER AND/OR OBSTRUCTIONS TO VISIBILITY.


SDZ001>005-009-010-012>017-190500-
NORTHWEST AND NORTH CENTRAL SOUTH DAKOTA

CITY           SKY/WX    TMP DP  RH WIND       PRES   REMARKS
BUFFALO          N/A     70  58  65 NW25G46   29.73R
FAITH            N/A     67  63  87 SE15      29.70F
MOBRIDGE       MOCLDY    67  61  81 S13       29.70S
$$

SDZ012>016-024>037-041>051-057-063-072>074-190500-
SOUTHWEST AND SOUTH CENTRAL SOUTH DAKOTA

CITY           SKY/WX    TMP DP  RH WIND       PRES   REMARKS
RAPID CTY ARPT MOCLDY    71  54  54 S10       29.72F
PIERRE         CLEAR     68  60  75 SE12      29.72F
CUSTER         PTCLDY    68  45  43 CALM      29.92S
ELLSWORTH AFB  MOCLDY    72  55  54 S7        29.72F
PHILIP         MOCLDY    72  62  71 SE12      29.70S
PINE RIDGE     CLEAR     70  62  76 S18G29    29.78F
WINNER         FAIR      68  62  81 S18G29    29.78F
$$

SDZ004>011-016>023-039-040-190500-
NORTHEAST SOUTH DAKOTA

CITY           SKY/WX    TMP DP  RH WIND       PRES   REMARKS
ABERDEEN       PTCLDY    66  57  72 S16G23    29.77F
WATERTOWN      MOCLDY    63  55  75 S17       29.85F
SISSETON         N/A     62  56  80 S9        29.81S
$$

SDZ017-020-022-023-036>040-048>070-190500-
SOUTHEAST SOUTH DAKOTA

CITY           SKY/WX    TMP DP  RH WIND       PRES   REMARKS
SIOUX FALLS    PTCLDY    64  55  72 S15G24    29.91S
HURON          PTCLDY    65  57  75 S15G23    29.81F
CHAMBERLAIN    CLEAR     62  59  90 SE9       29.79S
MITCHELL       PTCLDY    67  58  72 S17       29.84F
YANKTON        CLOUDY    64  57  77 SE14G20   29.90F
$$

ABBREVIATIONS USED IN REMARKS
   TC - TEMPERATURE IN CELSIUS
  WCI - WIND CHILL INDEX
   HX - HEAT INDEX
  VSB - VISIBILITY




USA.gov is the U.S. government's official web portal to all federal, state and local government web resources and services.